Weather in Dorohoi

Romania     47°57′04″N   26°23′56″E
temp.,
°C
wind,
m/s
gust,
m/s
humid.,
%
clouds,
%
prec.,
mm/h
press.,
hPa
HPBL,
m
19 september, sun
sun1900:00+12wsw21865 0.2 101011
03:00+12ssw228778 0.3 101015
06:00+10s229150 0.2 100918
09:00+14w376997 0.2 1009416
12:00+12nnw6772100 0.2 1011708
15:00+10nnw5980100 0.3 1012695
18:00+9nnw51084100 0.1 1012769
21:00+9nw41081100 0.2 1013890
20 september, mon
mon2000:00+8nw41181100 0.0 1013842
03:00+8nw51181100 0.0 1014806
06:00+8nw51382100 0.0 1014786
09:00+8nw61280100 0.0 1015689
12:00+9nw51178100 0.0 1016695
15:00+11nnw796583 0.0 1015996
18:00+10nw697096 0.0 1016917
21:00+8nw5117289 0.0 10181005
21 september, tue
tue2100:00+6wnw4108239 0.0 1019442
03:00+7nw61170100 0.0 10191014
06:00+8nw91456100 0.0 10191479
09:00+9nw81453100 0.0 10201664
12:00+11nw91349100 0.0 10211825
15:00+11nw101355100 0.0 10221536
18:00+10nw8115710 0.0 10221214
21:00+8nw7116598 0.0 10241193
22 september, wed
wed2200:00+8wnw71267100 0.0 1024820
03:00+9nw61256100 0.0 10221161
06:00+6nw5127380 0.0 1022734
09:00+8nw71261100 0.0 10221304
12:00+10nnw71054100 0.0 10211576
15:00+12nw71048100 0.1 10201882
18:00+11nnw61054100 0.1 10191603
21:00+9nw4966100 0.1 1020514
23 september, thu
thu2300:00+8wnw376871 0.0 1019252
03:00+7wnw7136996 0.1 1018545
06:00+6wnw5127273 0.0 1018401
09:00+8nw6116870 0.0 1018732
12:00+13nw794580 0.0 10172007
15:00+15nw8937100 0.0 10152388
18:00+13nnw5857100 0.0 10151104
21:00+11w1165100 0.0 101511